When you browse on this site, cookies collect data to enhance your experience and personalize the content and advertising you see.
Visit our Privacy Policy to learn more. By continuing to use the site, you agree to this use of cookies and data.
  • în România
  • Lista ţărilor
  • Pe 7 zile
  • Temperatura apei
  • Meteo pe hartă
  • Widget-uri
  • user-avatar
    Intrare

    Meteo pe oră la Cuiaba

    Astăzi, 18 Februarie, Marţi

    Timp Temperatura Precipitaţii Vânt Presiune Umiditate
    00:00 +27°C° 0 mm 1 m/s 739 mmHg 88%
    01:00 +27°C° 0 mm 1 m/s 738 mmHg 89%
    02:00 +26°C° 0 mm 1 m/s 738 mmHg 89%
    03:00 +26°C° 0 mm 1 m/s 738 mmHg 89%
    04:00 +26°C° 0 mm 1 m/s 739 mmHg 90%
    05:00 +26°C° 0 mm 1 m/s 739 mmHg 90%
    06:00 +27°C° 0 mm 1 m/s 739 mmHg 86%
    07:00 +28°C° 0 mm 2 m/s 740 mmHg 83%
    08:00 +30°C° 0 mm 2 m/s 741 mmHg 78%
    09:00 +31°C° 0.1 mm 2 m/s 740 mmHg 71%
    10:00 +34°C° 0.1 mm 2 m/s 740 mmHg 65%
    11:00 +35°C° 0.1 mm 2 m/s 740 mmHg 59%
    12:00 +36°C° 0.1 mm 2 m/s 739 mmHg 57%
    13:00 +36°C° 0.1 mm 2 m/s 738 mmHg 56%
    14:00 +37°C° 0.1 mm 2 m/s 738 mmHg 54%
    15:00 +35°C° 0.2 mm 1 m/s 737 mmHg 58%
    16:00 +35°C° 0.2 mm 1 m/s 737 mmHg 62%
    17:00 +34°C° 0.2 mm 1 m/s 736 mmHg 65%
    18:00 +32°C° 0 mm 1 m/s 737 mmHg 69%
    19:00 +31°C° 0 mm 1 m/s 737 mmHg 72%
    20:00 +29°C° 0 mm 1 m/s 737 mmHg 76%
    21:00 +29°C° 0 mm 1 m/s 738 mmHg 77%
    22:00 +29°C° 0 mm 1 m/s 738 mmHg 79%
    23:00 +28°C° 0 mm 1 m/s 738 mmHg 80%

    Mâine, 19 Februarie, Miercuri

    Timp Temperatura Precipitaţii Vânt Presiune Umiditate
    00:00 +28°C° 0.5 mm 1 m/s 738 mmHg 81%
    01:00 +28°C° 0.5 mm 1 m/s 738 mmHg 82%
    02:00 +28°C° 0.5 mm 1 m/s 738 mmHg 82%
    03:00 +27°C° 0.5 mm 1 m/s 738 mmHg 84%
    04:00 +27°C° 0.5 mm 1 m/s 737 mmHg 85%
    05:00 +27°C° 0.5 mm 1 m/s 737 mmHg 87%
    06:00 +27°C° 0 mm 1 m/s 738 mmHg 85%
    07:00 +28°C° 0 mm 1 m/s 738 mmHg 83%
    08:00 +29°C° 0 mm 1 m/s 739 mmHg 81%
    09:00 +31°C° 0.1 mm 2 m/s 738 mmHg 73%
    10:00 +34°C° 0.1 mm 2 m/s 738 mmHg 65%
    11:00 +36°C° 0.1 mm 2 m/s 738 mmHg 56%
    12:00 +36°C° 1 mm 2 m/s 737 mmHg 60%
    13:00 +35°C° 1 mm 2 m/s 736 mmHg 63%
    14:00 +35°C° 1 mm 2 m/s 735 mmHg 67%
    15:00 +34°C° 0.8 mm 2 m/s 735 mmHg 70%
    16:00 +32°C° 0.8 mm 1 m/s 735 mmHg 74%
    17:00 +31°C° 0.8 mm 1 m/s 735 mmHg 77%
    18:00 +30°C° 0.2 mm 1 m/s 735 mmHg 79%
    19:00 +29°C° 0.2 mm 1 m/s 736 mmHg 81%
    20:00 +28°C° 0.2 mm 1 m/s 736 mmHg 82%
    21:00 +28°C° 0.2 mm 1 m/s 736 mmHg 83%
    22:00 +28°C° 0.2 mm 1 m/s 737 mmHg 84%
    23:00 +27°C° 0.2 mm 1 m/s 737 mmHg 84%

    Poimâine, 20 Februarie, Joi

    Timp Temperatura Precipitaţii Vânt Presiune Umiditate
    00:00 +27°C° 1.8 mm 1 m/s 737 mmHg 88%
    01:00 +27°C° 1.8 mm 1 m/s 736 mmHg 91%
    02:00 +26°C° 1.8 mm 1 m/s 736 mmHg 95%
    03:00 +26°C° 0.4 mm 1 m/s 736 mmHg 95%
    04:00 +26°C° 0.4 mm 1 m/s 736 mmHg 95%
    05:00 +26°C° 0.4 mm 2 m/s 736 mmHg 95%
    06:00 +26°C° 0 mm 2 m/s 737 mmHg 94%
    07:00 +27°C° 0 mm 2 m/s 737 mmHg 93%
    08:00 +27°C° 0 mm 2 m/s 738 mmHg 91%
    09:00 +28°C° 0.5 mm 1 m/s 738 mmHg 87%
    10:00 +29°C° 0.5 mm 1 m/s 738 mmHg 83%
    11:00 +30°C° 0.5 mm 1 m/s 738 mmHg 79%
    12:00 +31°C° 0.7 mm 1 m/s 738 mmHg 76%
    13:00 +32°C° 0.7 mm 2 m/s 737 mmHg 73%
    14:00 +32°C° 0.7 mm 2 m/s 736 mmHg 69%
    15:00 +32°C° 0.8 mm 2 m/s 736 mmHg 72%
    16:00 +31°C° 0.8 mm 2 m/s 735 mmHg 74%
    17:00 +31°C° 0.8 mm 1 m/s 735 mmHg 77%
    18:00 +30°C° 1.3 mm 1 m/s 735 mmHg 82%
    19:00 +28°C° 1.3 mm 1 m/s 736 mmHg 86%
    20:00 +27°C° 1.3 mm 1 m/s 737 mmHg 91%
    21:00 +27°C° 0.5 mm 1 m/s 737 mmHg 92%
    22:00 +27°C° 0.5 mm 1 m/s 737 mmHg 93%
    23:00 +26°C° 0.5 mm 1 m/s 737 mmHg 95%

    21 Februarie, Vineri

    Timp Temperatura Precipitaţii Vânt Presiune Umiditate
    00:00 +26°C° 0.4 mm 1 m/s 737 mmHg 95%
    01:00 +26°C° 0.4 mm 1 m/s 737 mmHg 96%
    02:00 +26°C° 0.4 mm 1 m/s 737 mmHg 96%
    09:00 +27°C° 1.2 mm 0 m/s 739 mmHg 87%
    10:00 +28°C° 1.2 mm 0 m/s 739 mmHg 83%
    11:00 +29°C° 1.2 mm 0 m/s 739 mmHg 80%
    12:00 +29°C° 2.3 mm 0 m/s 738 mmHg 80%
    13:00 +29°C° 2.3 mm 0 m/s 737 mmHg 81%
    14:00 +29°C° 2.3 mm 0 m/s 737 mmHg 82%
    15:00 +28°C° 3.3 mm 0 m/s 736 mmHg 86%
    16:00 +28°C° 3.3 mm 1 m/s 736 mmHg 90%
    17:00 +27°C° 3.3 mm 1 m/s 736 mmHg 95%
    18:00 +27°C° 6.2 mm 1 m/s 736 mmHg 96%
    19:00 +26°C° 6.2 mm 1 m/s 737 mmHg 97%
    20:00 +26°C° 6.2 mm 1 m/s 737 mmHg 98%
    21:00 +26°C° 2.6 mm 1 m/s 738 mmHg 98%
    22:00 +25°C° 2.6 mm 1 m/s 738 mmHg 98%
    23:00 +25°C° 2.6 mm 1 m/s 738 mmHg 98%

    22 Februarie, Sâmbătă

    Timp Temperatura Precipitaţii Vânt Presiune Umiditate
    00:00 +25°C° 2.2 mm 1 m/s 738 mmHg 98%
    01:00 +25°C° 2.2 mm 1 m/s 737 mmHg 98%
    02:00 +25°C° 2.2 mm 1 m/s 737 mmHg 98%
    03:00 +25°C° 5.3 mm 1 m/s 737 mmHg 98%
    04:00 +25°C° 5.3 mm 2 m/s 737 mmHg 98%
    05:00 +25°C° 5.3 mm 2 m/s 737 mmHg 98%
    06:00 +25°C° 2.2 mm 2 m/s 738 mmHg 97%
    07:00 +25°C° 2.2 mm 3 m/s 738 mmHg 97%
    08:00 +25°C° 2.2 mm 3 m/s 739 mmHg 96%
    09:00 +25°C° 1.2 mm 3 m/s 739 mmHg 96%
    10:00 +25°C° 1.2 mm 4 m/s 739 mmHg 95%
    11:00 +25°C° 1.2 mm 4 m/s 739 mmHg 95%
    12:00 +25°C° 0.4 mm 4 m/s 739 mmHg 94%
    13:00 +25°C° 0.4 mm 3 m/s 738 mmHg 94%
    14:00 +26°C° 0.4 mm 3 m/s 738 mmHg 93%
    15:00 +26°C° 0.4 mm 3 m/s 738 mmHg 94%
    16:00 +26°C° 0.4 mm 3 m/s 738 mmHg 94%
    17:00 +26°C° 0.4 mm 2 m/s 737 mmHg 94%
    18:00 +25°C° 0.3 mm 2 m/s 738 mmHg 95%
    19:00 +25°C° 0.3 mm 2 m/s 738 mmHg 96%
    20:00 +24°C° 0.3 mm 2 m/s 739 mmHg 97%
    21:00 +24°C° 0.5 mm 1 m/s 739 mmHg 97%
    22:00 +24°C° 0.5 mm 1 m/s 739 mmHg 98%
    23:00 +22°C° 0.5 mm 0 m/s 740 mmHg 98%

    23 Februarie, Duminică

    Timp Temperatura Precipitaţii Vânt Presiune Umiditate
    00:00 +21°C° 0.2 mm 0 m/s 739 mmHg 98%
    01:00 +21°C° 0.2 mm 0 m/s 739 mmHg 98%
    02:00 +21°C° 0.2 mm 0 m/s 739 mmHg 98%
    03:00 +21°C° 0.2 mm 0 m/s 739 mmHg 98%
    04:00 +22°C° 0.2 mm 0 m/s 739 mmHg 98%
    05:00 +22°C° 0.2 mm 0 m/s 739 mmHg 98%
    06:00 +24°C° 0.1 mm 1 m/s 739 mmHg 97%
    07:00 +24°C° 0.1 mm 1 m/s 740 mmHg 96%
    08:00 +25°C° 0.1 mm 1 m/s 741 mmHg 95%
    09:00 +25°C° 0.4 mm 1 m/s 741 mmHg 95%
    10:00 +26°C° 0.4 mm 2 m/s 741 mmHg 94%
    11:00 +26°C° 0.4 mm 2 m/s 741 mmHg 94%
    12:00 +27°C° 0.1 mm 2 m/s 740 mmHg 91%
    13:00 +27°C° 0.2 mm 2 m/s 739 mmHg 88%
    14:00 +28°C° 0.2 mm 2 m/s 739 mmHg 85%
    15:00 +28°C° 0.5 mm 2 m/s 738 mmHg 85%
    16:00 +28°C° 0.5 mm 2 m/s 738 mmHg 85%
    17:00 +29°C° 0.5 mm 1 m/s 737 mmHg 86%
    18:00 +27°C° 0.7 mm 1 m/s 738 mmHg 89%
    19:00 +26°C° 0.7 mm 1 m/s 738 mmHg 92%
    20:00 +23°C° 0.7 mm 0 m/s 739 mmHg 95%
    21:00 +23°C° 0.1 mm 0 m/s 739 mmHg 95%
    22:00 +23°C° 0.1 mm 0 m/s 739 mmHg 95%
    23:00 +23°C° 0.1 mm 0 m/s 739 mmHg 96%
    Arată mai mult